Weather History for KCCU - August, 2013

Change the Weather History Date:

Wednesday, August 28, 2013

  Actual Average (KLXV) Record (KLXV)
Temperature  
Mean Temperature 62 °F -  
Max Temperature 73 °F 66 °F 77 °F (1990)
Min Temperature 50 °F 36 °F 25 °F (2004)
Degree Days  
Heating Degree Days 4 14  
Month to date heating degree days 342  
Since 1 June heating degree days 1158  
Since 1 July heating degree days 678  
Cooling Degree Days 0 0  
Month to date cooling degree days 0  
Year to date cooling degree days 0  
Since 1 June cooling degree days 0  
Growing Degree Days 12 (Base 50)    
Moisture  
Dew Point 40 °F    
Average Humidity 54    
Maximum Humidity 76    
Minimum Humidity 20    
Precipitation  
Precipitation 0.15 in 0.06 in 0.30 in (1976)
Month to date precipitation 1.85  
Year to date precipitation 8.77  
Sea Level Pressure  
Sea Level Pressure 30.71 in    
Wind  
Wind Speed 8 mph (SSW)    
Max Wind Speed 26 mph    
Max Gust Speed 30 mph    
Visibility 10 miles    
Events Rain , Thunderstorm    
T = Trace of Precipitation, MM = Missing Value Source: NWS Daily Summary

Daily Weather History Graph

Daily Weather History Graph

Search for Another Location

Airport or City:

Trip Planner

Search our weather history database for the weather conditions in past years. The results will help you decide how hot, cold, wet, or windy it might be!

Date:

Astronomy

Aug. 28, 2013 Rise Set
Actual Time 6:29 AM MDT 7:41 PM MDT
Civil Twilight 6:01 AM MDT 8:08 PM MDT
Nautical Twilight 5:28 AM MDT 8:42 PM MDT
Astronomical Twilight 4:53 AM MDT 9:16 PM MDT
Moon No Moon Rise 2:20 PM MDT (8/28)
Length of Visible Light 14h 07m
Length of Day
13h 11m
Waning Gibbous, 47% of the Moon is Illuminated
Aug 28
Waning Gibbous
Sep 5
New
Sep 12
First Quarter
Sep 19
Full
Sep 26
Last Quarter

Hourly Weather History & Observations

Time (MDT) Temp. Dew Point Humidity Pressure Visibility Wind Dir Wind Speed Gust Speed Precip Events Conditions
12:14 AM 55.4 °F 41.0 °F 58% 30.68 in 10.0 mi South 8.1 mph - N/A   Clear
12:34 AM 53.6 °F 41.0 °F 62% 30.69 in 10.0 mi South 5.8 mph - N/A   Clear
12:54 AM 55.4 °F 41.0 °F 58% 30.69 in 10.0 mi WSW 5.8 mph - N/A   Clear
1:14 AM 53.6 °F 41.0 °F 62% 30.68 in 10.0 mi South 6.9 mph - N/A   Clear
1:34 AM 53.6 °F 42.8 °F 67% 30.68 in 10.0 mi South 8.1 mph - N/A   Clear
1:54 AM 53.6 °F 41.0 °F 62% 30.68 in 10.0 mi South 8.1 mph - N/A   Clear
2:14 AM 53.6 °F 42.8 °F 67% 30.68 in 10.0 mi West 6.9 mph - N/A   Clear
2:34 AM 53.6 °F 42.8 °F 67% 30.68 in 10.0 mi South 8.1 mph - N/A   Clear
2:54 AM 53.6 °F 42.8 °F 67% 30.68 in 10.0 mi South 5.8 mph - N/A   Clear
3:14 AM 53.6 °F 42.8 °F 67% 30.68 in 10.0 mi South 8.1 mph - N/A   Clear
3:34 AM 53.6 °F 41.0 °F 62% 30.67 in 10.0 mi South 10.4 mph - N/A   Clear
3:54 AM 53.6 °F 41.0 °F 62% 30.67 in 10.0 mi South 11.5 mph - N/A   Clear
4:14 AM 53.6 °F 39.2 °F 58% 30.67 in 10.0 mi South 6.9 mph - N/A   Clear
4:34 AM 55.4 °F 41.0 °F 58% 30.67 in 10.0 mi SSW 5.8 mph - N/A   Clear
4:54 AM 55.4 °F 41.0 °F 58% 30.67 in 10.0 mi South 6.9 mph - N/A   Clear
5:14 AM 55.4 °F 41.0 °F 58% 30.67 in 10.0 mi Calm Calm - N/A   Clear
5:34 AM 53.6 °F 39.2 °F 58% 30.67 in 10.0 mi Calm Calm - N/A   Clear
5:54 AM 53.6 °F 39.2 °F 58% 30.67 in 10.0 mi South 6.9 mph - N/A   Clear
6:14 AM 53.6 °F 41.0 °F 62% 30.68 in 10.0 mi West 9.2 mph - N/A   Clear
6:24 AM 53.6 °F 41.0 °F 62% 30.68 in 10.0 mi South 6.9 mph - N/A   Clear
7:34 AM 55.4 °F 42.8 °F 63% 30.69 in 10.0 mi South 6.9 mph - N/A   Clear
7:54 AM 59.0 °F 44.6 °F 59% 30.69 in 10.0 mi SW 5.8 mph - N/A   Clear
8:14 AM 59.0 °F 44.6 °F 59% 30.69 in 10.0 mi South 5.8 mph - N/A   Clear
8:34 AM 59.0 °F 42.8 °F 55% 30.69 in 10.0 mi Calm Calm - N/A   Clear
8:54 AM 59.0 °F 41.0 °F 51% 30.69 in 10.0 mi South 5.8 mph - N/A   Clear
9:14 AM 60.8 °F 42.8 °F 52% 30.69 in 10.0 mi West 5.8 mph - N/A   Clear
9:34 AM 59.0 °F 41.0 °F 51% 30.71 in 10.0 mi West 8.1 mph - N/A   Clear
9:54 AM 59.0 °F 41.0 °F 51% 30.71 in 10.0 mi West 5.8 mph - N/A   Clear
10:14 AM 62.6 °F 42.8 °F 48% 30.71 in 10.0 mi WSW 5.8 mph - N/A   Scattered Clouds
10:34 AM 64.4 °F 41.0 °F 42% 30.72 in 10.0 mi East 3.5 mph - N/A   Scattered Clouds
10:54 AM 66.2 °F 42.8 °F 43% 30.72 in 10.0 mi SSE 5.8 mph - N/A   Mostly Cloudy
11:14 AM 73.4 °F 42.8 °F 33% 30.72 in 10.0 mi South 6.9 mph - N/A   Mostly Cloudy
11:34 AM 66.2 °F 41.0 °F 40% 30.72 in 10.0 mi WSW 4.6 mph - N/A   Mostly Cloudy
11:54 AM 60.8 °F 41.0 °F 48% 30.72 in 10.0 mi West 12.7 mph - N/A   Overcast
12:14 PM 60.8 °F 41.0 °F 48% 30.72 in 10.0 mi West 8.1 mph - N/A   Overcast
12:34 PM 68.0 °F 35.6 °F 30% 30.72 in 10.0 mi SE 4.6 mph - N/A   Overcast
12:54 PM 64.4 °F 33.8 °F 32% 30.71 in 10.0 mi SSW 4.6 mph - N/A   Overcast
1:14 PM 71.6 °F 28.4 °F 20% 30.70 in 10.0 mi SSE 8.1 mph - N/A   Scattered Clouds
1:34 PM 73.4 °F 32.0 °F 22% 30.70 in 10.0 mi SSE 9.2 mph 17.3 mph N/A   Scattered Clouds
1:54 PM 64.4 °F 37.4 °F 37% 30.69 in 10.0 mi SSE 9.2 mph 17.3 mph N/A   Mostly Cloudy
2:14 PM 69.8 °F 39.2 °F 33% 30.69 in 10.0 mi NNW 4.6 mph - N/A Thunderstorm Mostly Cloudy
2:34 PM 64.4 °F 37.4 °F 37% 30.69 in 10.0 mi West 17.3 mph - N/A Thunderstorm Mostly Cloudy
2:54 PM 64.4 °F 39.2 °F 40% 30.69 in 10.0 mi West 16.1 mph - N/A   Overcast
3:14 PM 64.4 °F 39.2 °F 40% 30.69 in 10.0 mi West 11.5 mph - N/A   Mostly Cloudy
3:34 PM 60.8 °F 39.2 °F 45% 30.69 in 10.0 mi West 15.0 mph - N/A Thunderstorm Thunderstorm
3:54 PM 60.8 °F 41.0 °F 48% 30.68 in 10.0 mi West 16.1 mph - N/A Thunderstorm Mostly Cloudy
4:14 PM 64.4 °F 41.0 °F 42% 30.69 in 10.0 mi WNW 12.7 mph 18.4 mph N/A Thunderstorm Scattered Clouds
4:34 PM 60.8 °F 39.2 °F 45% 30.69 in 10.0 mi West 10.4 mph 17.3 mph N/A Thunderstorm Clear
4:54 PM 60.8 °F 41.0 °F 48% 30.69 in 10.0 mi West 15.0 mph - N/A Thunderstorm Thunderstorm
5:14 PM 60.8 °F 41.0 °F 48% 30.69 in 10.0 mi West 17.3 mph - N/A Thunderstorm Clear
5:34 PM 59.0 °F 39.2 °F 48% 30.70 in 10.0 mi West 17.3 mph - N/A Thunderstorm Clear
5:54 PM 59.0 °F 41.0 °F 51% 30.70 in 10.0 mi West 19.6 mph - N/A   Scattered Clouds
6:14 PM 59.0 °F 42.8 °F 55% 30.69 in 10.0 mi West 26.5 mph 29.9 mph N/A Thunderstorm Thunderstorm
6:34 PM 59.0 °F 42.8 °F 55% 30.71 in 10.0 mi NW 4.6 mph - N/A Thunderstorm Overcast
6:54 PM 55.4 °F 41.0 °F 58% 30.71 in 10.0 mi West 8.1 mph 20.7 mph N/A Rain Light Rain
7:14 PM 55.4 °F 39.2 °F 54% 30.72 in 10.0 mi NW 4.6 mph 16.1 mph N/A   Overcast
7:34 PM 55.4 °F 41.0 °F 58% 30.72 in 10.0 mi South 4.6 mph - N/A Rain , Thunderstorm Light Thunderstorms and Rain
7:54 PM 53.6 °F 41.0 °F 62% 30.73 in 10.0 mi SE 6.9 mph - N/A Thunderstorm Overcast
8:14 PM 53.6 °F 41.0 °F 62% 30.75 in 10.0 mi SSE 9.2 mph - N/A Thunderstorm Overcast
8:34 PM 53.6 °F 41.0 °F 62% 30.76 in 4.0 mi West 5.8 mph 19.6 mph 0.02 in Rain , Thunderstorm Light Thunderstorms and Rain
8:54 PM 53.6 °F 42.8 °F 67% 30.78 in 10.0 mi South 15.0 mph 24.2 mph 0.03 in Rain , Thunderstorm Light Thunderstorms and Rain
9:14 PM 50.0 °F 42.8 °F 76% 30.79 in 2.5 mi SSE 11.5 mph 20.7 mph 0.04 in Rain , Thunderstorm Rain
9:34 PM 51.8 °F 42.8 °F 71% 30.79 in 7.0 mi East 12.7 mph 16.1 mph 0.10 in Rain , Thunderstorm Rain
9:54 PM 50.0 °F 41.0 °F 71% 30.76 in 10.0 mi ESE 15.0 mph 19.6 mph 0.12 in Rain Light Rain
10:14 PM 51.8 °F 41.0 °F 67% 30.77 in 10.0 mi ENE 6.9 mph 19.6 mph N/A   Light Drizzle
10:34 PM 51.8 °F 41.0 °F 67% 30.76 in 10.0 mi SSE 8.1 mph - N/A   Scattered Clouds
10:54 PM 53.6 °F 41.0 °F 62% 30.76 in 10.0 mi South 6.9 mph - N/A   Scattered Clouds
11:14 PM 53.6 °F 35.6 °F 51% 30.75 in 10.0 mi South 6.9 mph - N/A   Scattered Clouds
11:34 PM 53.6 °F 37.4 °F 54% 30.75 in 10.0 mi SSE 10.4 mph - N/A   Clear
11:54 PM 53.6 °F 37.4 °F 54% 30.74 in 10.0 mi SSE 11.5 mph - N/A   Clear